Time,TemperatureF,DewpointF,PressureIn,WindDirection,WindDirectionDegrees,WindSpeedMPH,WindSpeedGustMPH,Humidity,HourlyPrecipIn,Conditions,Clouds,dailyrainin,SoftwareType,DateUTC
2013-02-28 00:07:00,48.9,23.8,30.30,NNE,22,0.0,-999.0,37,-99.99,,,0.00,Acu-Link.com,2013-02-28 08:07:00,
2013-02-28 00:22:00,49.1,24.0,30.30,NNE,22,1.1,-999.0,37,-99.99,,,0.00,Acu-Link.com,2013-02-28 08:22:00,
2013-02-28 00:37:00,47.7,23.4,30.30,NNE,22,0.0,-999.0,38,-99.99,,,0.00,Acu-Link.com,2013-02-28 08:37:00,
2013-02-28 00:52:00,46.4,24.0,30.30,NNE,22,0.0,-999.0,41,-99.99,,,0.00,Acu-Link.com,2013-02-28 08:52:00,
2013-02-28 01:19:00,45.9,24.1,30.31,NNE,22,2.7,-999.0,42,-99.99,,,0.00,Acu-Link.com,2013-02-28 09:19:00,
2013-02-28 01:34:00,46.6,24.2,30.31,NNE,22,2.7,-999.0,41,-99.99,,,0.00,Acu-Link.com,2013-02-28 09:34:00,
2013-02-28 01:49:00,45.5,23.8,30.30,NNE,22,2.2,-999.0,42,-99.99,,,0.00,Acu-Link.com,2013-02-28 09:49:00,
2013-02-28 02:04:00,45.9,24.1,30.30,NNE,22,2.7,-999.0,42,-99.99,,,0.00,Acu-Link.com,2013-02-28 10:04:00,
2013-02-28 02:20:00,46.9,24.4,30.29,NNE,22,2.7,-999.0,41,-99.99,,,0.00,Acu-Link.com,2013-02-28 10:20:00,
2013-02-28 02:35:00,47.1,24.6,30.30,NNE,22,2.2,-999.0,41,-99.99,,,0.00,Acu-Link.com,2013-02-28 10:35:00,
2013-02-28 02:50:00,47.1,24.0,30.29,NNE,22,0.0,-999.0,40,-99.99,,,0.00,Acu-Link.com,2013-02-28 10:50:00,
2013-02-28 03:05:00,45.5,22.6,30.29,NNE,22,1.7,-999.0,40,-99.99,,,0.00,Acu-Link.com,2013-02-28 11:05:00,
2013-02-28 03:20:00,44.4,22.8,30.29,NNE,22,2.7,-999.0,42,-99.99,,,0.00,Acu-Link.com,2013-02-28 11:20:00,
2013-02-28 03:36:00,44.4,23.3,30.29,NNE,22,3.2,-999.0,43,-99.99,,,0.00,Acu-Link.com,2013-02-28 11:36:00,
2013-02-28 03:51:00,44.4,23.3,30.29,NNE,22,2.2,-999.0,43,-99.99,,,0.00,Acu-Link.com,2013-02-28 11:51:00,
2013-02-28 04:06:00,43.9,23.4,30.30,NNE,22,2.7,-999.0,44,-99.99,,,0.00,Acu-Link.com,2013-02-28 12:06:00,
2013-02-28 04:21:00,44.6,24.1,30.30,NNE,22,1.7,-999.0,44,-99.99,,,0.00,Acu-Link.com,2013-02-28 12:21:00,
2013-02-28 04:37:00,44.8,24.2,30.29,NNE,22,1.7,-999.0,44,-99.99,,,0.00,Acu-Link.com,2013-02-28 12:37:00,
2013-02-28 04:52:00,44.8,23.7,30.29,NNE,22,0.0,-999.0,43,-99.99,,,0.00,Acu-Link.com,2013-02-28 12:52:00,
2013-02-28 05:07:00,43.5,23.1,30.30,NNE,22,0.0,-999.0,44,-99.99,,,0.00,Acu-Link.com,2013-02-28 13:07:00,
2013-02-28 05:22:00,42.8,22.4,30.31,NNE,22,0.0,-999.0,44,-99.99,,,0.00,Acu-Link.com,2013-02-28 13:22:00,
2013-02-28 05:37:00,42.1,22.3,30.31,NNE,22,2.2,-999.0,45,-99.99,,,0.00,Acu-Link.com,2013-02-28 13:37:00,
2013-02-28 05:53:00,43.7,23.8,30.32,NNE,22,2.2,-999.0,45,-99.99,,,0.00,Acu-Link.com,2013-02-28 13:53:00,
2013-02-28 06:08:00,45.3,24.7,30.32,NNE,22,3.2,-999.0,44,-99.99,,,0.00,Acu-Link.com,2013-02-28 14:08:00,
2013-02-28 06:23:00,46.2,24.4,30.31,NNE,22,2.2,-999.0,42,-99.99,,,0.00,Acu-Link.com,2013-02-28 14:23:00,
2013-02-28 06:38:00,47.3,24.8,30.32,NNE,22,2.2,-999.0,41,-99.99,,,0.00,Acu-Link.com,2013-02-28 14:38:00,
2013-02-28 06:53:00,48.4,24.6,30.32,NNE,22,1.7,-999.0,39,-99.99,,,0.00,Acu-Link.com,2013-02-28 14:53:00,
2013-02-28 07:09:00,48.9,24.4,30.32,NNE,22,0.0,-999.0,38,-99.99,,,0.00,Acu-Link.com,2013-02-28 15:09:00,
2013-02-28 07:24:00,50.4,25.8,30.33,NNE,22,0.0,-999.0,38,-99.99,,,0.00,Acu-Link.com,2013-02-28 15:24:00,
2013-02-28 07:39:00,52.0,27.2,30.32,NNE,22,0.0,-999.0,38,-99.99,,,0.00,Acu-Link.com,2013-02-28 15:39:00,
2013-02-28 07:54:00,58.3,32.1,30.33,NNE,22,0.0,-999.0,37,-99.99,,,0.00,Acu-Link.com,2013-02-28 15:54:00,
2013-02-28 08:10:00,64.4,36.9,30.33,NNE,22,0.0,-999.0,36,-99.99,,,0.00,Acu-Link.com,2013-02-28 16:10:00,
2013-02-28 08:25:00,65.3,37.7,30.33,NNE,22,2.2,-999.0,36,-99.99,,,0.00,Acu-Link.com,2013-02-28 16:25:00,
2013-02-28 08:40:00,67.3,38.7,30.33,North,0,0.0,-999.0,35,-99.99,,,0.00,Acu-Link.com,2013-02-28 16:40:00,
2013-02-28 08:55:00,70.2,39.0,30.33,North,0,1.7,-999.0,32,-99.99,,,0.00,Acu-Link.com,2013-02-28 16:55:00,
2013-02-28 09:10:00,71.4,38.3,30.33,NNW,337,1.7,-999.0,30,-99.99,,,0.00,Acu-Link.com,2013-02-28 17:10:00,
2013-02-28 09:25:00,73.6,39.4,30.33,NE,45,2.2,-999.0,29,-99.99,,,0.00,Acu-Link.com,2013-02-28 17:25:00,
2013-02-28 09:41:00,74.7,39.4,30.33,North,0,1.1,-999.0,28,-99.99,,,0.00,Acu-Link.com,2013-02-28 17:41:00,
2013-02-28 09:56:00,75.4,39.1,30.33,SE,135,6.8,-999.0,27,-99.99,,,0.00,Acu-Link.com,2013-02-28 17:56:00,
2013-02-28 10:11:00,75.9,38.5,30.32,NE,45,2.2,-999.0,26,-99.99,,,0.00,Acu-Link.com,2013-02-28 18:11:00,
2013-02-28 10:27:00,78.4,39.7,30.32,North,0,3.7,-999.0,25,-99.99,,,0.00,Acu-Link.com,2013-02-28 18:27:00,
2013-02-28 10:42:00,79.0,39.1,30.31,ESE,112,4.2,-999.0,24,-99.99,,,0.00,Acu-Link.com,2013-02-28 18:42:00,
2013-02-28 10:57:00,79.5,39.5,30.31,North,0,2.7,-999.0,24,-99.99,,,0.00,Acu-Link.com,2013-02-28 18:57:00,
2013-02-28 11:12:00,80.2,39.0,30.30,North,0,2.2,-999.0,23,-99.99,,,0.00,Acu-Link.com,2013-02-28 19:12:00,
2013-02-28 11:27:00,82.4,40.9,30.30,ESE,112,3.7,-999.0,23,-99.99,,,0.00,Acu-Link.com,2013-02-28 19:27:00,
2013-02-28 11:43:00,82.4,39.7,30.30,North,0,2.2,-999.0,22,-99.99,,,0.00,Acu-Link.com,2013-02-28 19:43:00,
2013-02-28 11:58:00,81.7,39.1,30.28,North,0,2.7,-999.0,22,-99.99,,,0.00,Acu-Link.com,2013-02-28 19:58:00,
2013-02-28 12:13:00,82.0,38.2,30.27,North,0,3.7,-999.0,21,-99.99,,,0.00,Acu-Link.com,2013-02-28 20:13:00,
2013-02-28 12:28:00,82.4,38.5,30.26,ESE,112,2.2,-999.0,21,-99.99,,,0.00,Acu-Link.com,2013-02-28 20:28:00,
2013-02-28 12:44:00,82.6,38.7,30.24,North,0,1.7,-999.0,21,-99.99,,,0.00,Acu-Link.com,2013-02-28 20:44:00,
2013-02-28 12:59:00,81.5,36.5,30.23,East,90,3.7,-999.0,20,-99.99,,,0.00,Acu-Link.com,2013-02-28 20:59:00,
2013-02-28 13:14:00,81.0,36.1,30.23,SSE,157,3.2,-999.0,20,-99.99,,,0.00,Acu-Link.com,2013-02-28 21:14:00,
2013-02-28 13:29:00,79.7,36.3,30.24,WSW,247,4.7,-999.0,21,-99.99,,,0.00,Acu-Link.com,2013-02-28 21:29:00,
2013-02-28 13:44:00,80.8,37.2,30.23,NNW,337,2.2,-999.0,21,-99.99,,,0.00,Acu-Link.com,2013-02-28 21:44:00,
2013-02-28 14:00:00,80.4,36.9,30.23,SSW,202,7.8,-999.0,21,-99.99,,,0.00,Acu-Link.com,2013-02-28 22:00:00,
2013-02-28 14:15:00,80.1,36.6,30.23,SSE,157,2.2,-999.0,21,-99.99,,,0.00,Acu-Link.com,2013-02-28 22:15:00,
2013-02-28 14:30:00,79.9,36.5,30.21,South,180,6.8,-999.0,21,-99.99,,,0.00,Acu-Link.com,2013-02-28 22:30:00,
2013-02-28 14:45:00,78.8,35.6,30.21,South,180,5.8,-999.0,21,-99.99,,,0.00,Acu-Link.com,2013-02-28 22:45:00,
2013-02-28 15:00:00,77.2,34.2,30.22,South,180,5.8,-999.0,21,-99.99,,,0.00,Acu-Link.com,2013-02-28 23:00:00,
2013-02-28 15:16:00,77.0,34.1,30.22,South,180,5.3,-999.0,21,-99.99,,,0.00,Acu-Link.com,2013-02-28 23:16:00,
2013-02-28 15:31:00,76.1,33.3,30.22,SSW,202,6.3,-999.0,21,-99.99,,,0.00,Acu-Link.com,2013-02-28 23:31:00,
2013-02-28 15:46:00,72.5,32.6,30.22,South,180,7.8,-999.0,23,-99.99,,,0.00,Acu-Link.com,2013-02-28 23:46:00,
2013-02-28 16:01:00,70.0,36.3,30.23,SSW,202,6.3,-999.0,29,-99.99,,,0.00,Acu-Link.com,2013-03-01 00:01:00,
2013-02-28 16:17:00,69.3,37.4,30.23,SW,225,4.2,-999.0,31,-99.99,,,0.00,Acu-Link.com,2013-03-01 00:17:00,
2013-02-28 16:32:00,69.6,38.4,30.23,South,180,3.2,-999.0,32,-99.99,,,0.00,Acu-Link.com,2013-03-01 00:32:00,
2013-02-28 16:47:00,68.4,38.2,30.24,South,180,3.7,-999.0,33,-99.99,,,0.00,Acu-Link.com,2013-03-01 00:47:00,
2013-02-28 17:02:00,66.9,38.4,30.24,SW,225,4.7,-999.0,35,-99.99,,,0.00,Acu-Link.com,2013-03-01 01:02:00,
2013-02-28 17:17:00,65.3,38.4,30.24,SW,225,2.7,-999.0,37,-99.99,,,0.00,Acu-Link.com,2013-03-01 01:17:00,
2013-02-28 17:33:00,64.2,38.1,30.25,South,180,4.7,-999.0,38,-99.99,,,0.00,Acu-Link.com,2013-03-01 01:33:00,
2013-02-28 17:48:00,62.4,37.1,30.27,South,180,5.8,-999.0,39,-99.99,,,0.00,Acu-Link.com,2013-03-01 01:48:00,
2013-02-28 18:03:00,61.2,36.7,30.26,SW,225,2.2,-999.0,40,-99.99,,,0.00,Acu-Link.com,2013-03-01 02:03:00,
2013-02-28 18:18:00,60.3,37.7,30.25,SW,225,0.0,-999.0,43,-99.99,,,0.00,Acu-Link.com,2013-03-01 02:18:00,
2013-02-28 18:33:00,57.9,37.2,30.25,SW,225,1.1,-999.0,46,-99.99,,,0.00,Acu-Link.com,2013-03-01 02:33:00,
2013-02-28 18:49:00,56.7,37.2,30.25,SW,225,2.2,-999.0,48,-99.99,,,0.00,Acu-Link.com,2013-03-01 02:49:00,
2013-02-28 19:04:00,55.6,37.3,30.26,SW,225,1.7,-999.0,50,-99.99,,,0.00,Acu-Link.com,2013-03-01 03:04:00,
2013-02-28 19:19:00,54.7,37.9,30.28,SW,225,2.2,-999.0,53,-99.99,,,0.00,Acu-Link.com,2013-03-01 03:19:00,
2013-02-28 19:34:00,52.5,36.3,30.29,SW,225,1.7,-999.0,54,-99.99,,,0.00,Acu-Link.com,2013-03-01 03:34:00,
2013-02-28 19:49:00,52.2,37.4,30.28,SW,225,2.2,-999.0,57,-99.99,,,0.00,Acu-Link.com,2013-03-01 03:49:00,
2013-02-28 20:05:00,52.0,37.2,30.29,SW,225,1.7,-999.0,57,-99.99,,,0.00,Acu-Link.com,2013-03-01 04:05:00,
2013-02-28 20:20:00,51.3,37.0,30.28,SW,225,0.0,-999.0,58,-99.99,,,0.00,Acu-Link.com,2013-03-01 04:20:00,
2013-02-28 20:35:00,51.1,36.8,30.29,SW,225,1.7,-999.0,58,-99.99,,,0.00,Acu-Link.com,2013-03-01 04:35:00,
2013-02-28 20:50:00,51.3,37.0,30.29,SW,225,2.2,-999.0,58,-99.99,,,0.00,Acu-Link.com,2013-03-01 04:50:00,
2013-02-28 21:06:00,51.4,36.7,30.29,SW,225,1.7,-999.0,57,-99.99,,,0.00,Acu-Link.com,2013-03-01 05:06:00,
2013-02-28 21:21:00,51.4,36.7,30.29,SW,225,1.1,-999.0,57,-99.99,,,0.00,Acu-Link.com,2013-03-01 05:21:00,
2013-02-28 21:36:00,51.1,36.4,30.29,SW,225,0.0,-999.0,57,-99.99,,,0.00,Acu-Link.com,2013-03-01 05:36:00,
2013-02-28 21:51:00,51.3,36.1,30.30,SW,225,0.0,-999.0,56,-99.99,,,0.00,Acu-Link.com,2013-03-01 05:51:00,
2013-02-28 22:07:00,50.4,34.8,30.31,SW,225,2.2,-999.0,55,-99.99,,,0.00,Acu-Link.com,2013-03-01 06:07:00,
2013-02-28 22:22:00,49.3,33.8,30.31,SW,225,2.2,-999.0,55,-99.99,,,0.00,Acu-Link.com,2013-03-01 06:22:00,
2013-02-28 22:37:00,48.7,33.3,30.31,SW,225,0.0,-999.0,55,-99.99,,,0.00,Acu-Link.com,2013-03-01 06:37:00,
2013-02-28 22:52:00,47.7,32.8,30.31,SW,225,2.7,-999.0,56,-99.99,,,0.00,Acu-Link.com,2013-03-01 06:52:00,
2013-02-28 23:07:00,47.1,32.2,30.32,SW,225,1.7,-999.0,56,-99.99,,,0.00,Acu-Link.com,2013-03-01 07:07:00,
2013-02-28 23:23:00,47.5,32.6,30.33,SW,225,3.2,-999.0,56,-99.99,,,0.00,Acu-Link.com,2013-03-01 07:23:00,
2013-02-28 23:38:00,47.8,32.4,30.32,SW,225,2.2,-999.0,55,-99.99,,,0.00,Acu-Link.com,2013-03-01 07:38:00,
2013-02-28 23:53:00,47.7,32.3,30.32,SW,225,1.7,-999.0,55,-99.99,,,0.00,Acu-Link.com,2013-03-01 07:53:00,